• en France
  • Liste des pays
  • À 7 jours
  • Température de l'eau
  • Carte satellitaire
  • Carte météo
  • Widgets météo
  • user-avatar
    Se connecter

    Météo par heure à Dybowo

    Ce jour, 20 Août, Lundi

    Heure Température Précipitation Vent Pression Humidité
    00:00 +19°C° 0 mm 2 m/s 749 mmHg 74%
    01:00 +19°C° 0 mm 2 m/s 749 mmHg 75%
    02:00 +18°C° 0 mm 2 m/s 749 mmHg 76%
    03:00 +18°C° 0 mm 2 m/s 748 mmHg 77%
    04:00 +18°C° 0 mm 2 m/s 748 mmHg 78%
    05:00 +19°C° 0 mm 3 m/s 748 mmHg 73%
    06:00 +21°C° 0 mm 3 m/s 748 mmHg 69%
    07:00 +22°C° 0 mm 3 m/s 748 mmHg 64%
    08:00 +25°C° 0 mm 4 m/s 747 mmHg 59%
    09:00 +27°C° 0 mm 4 m/s 747 mmHg 55%
    10:00 +28°C° 0 mm 5 m/s 747 mmHg 50%
    11:00 +29°C° 0 mm 5 m/s 747 mmHg 48%
    12:00 +29°C° 0 mm 5 m/s 747 mmHg 46%
    13:00 +30°C° 0 mm 6 m/s 746 mmHg 44%
    14:00 +29°C° 0 mm 6 m/s 746 mmHg 49%
    15:00 +28°C° 0 mm 6 m/s 746 mmHg 54%
    16:00 +26°C° 0 mm 6 m/s 746 mmHg 59%
    17:00 +25°C° 0 mm 5 m/s 746 mmHg 64%
    18:00 +22°C° 0 mm 4 m/s 746 mmHg 70%
    19:00 +21°C° 0 mm 3 m/s 746 mmHg 76%
    20:00 +20°C° 0,1 mm 4 m/s 746 mmHg 79%
    21:00 +19°C° 0,1 mm 4 m/s 746 mmHg 83%
    22:00 +19°C° 0,1 mm 4 m/s 747 mmHg 86%
    23:00 +18°C° 0 mm 4 m/s 747 mmHg 86%

    Demain, 21 Août, Mardi

    Heure Température Précipitation Vent Pression Humidité
    00:00 +17°C° 0 mm 4 m/s 747 mmHg 86%
    01:00 +15°C° 0 mm 4 m/s 747 mmHg 86%
    02:00 +15°C° 0 mm 4 m/s 747 mmHg 85%
    03:00 +14°C° 0 mm 4 m/s 747 mmHg 84%
    04:00 +14°C° 0 mm 4 m/s 748 mmHg 83%
    05:00 +14°C° 0 mm 4 m/s 748 mmHg 79%
    06:00 +15°C° 0 mm 5 m/s 749 mmHg 76%
    07:00 +16°C° 0 mm 5 m/s 749 mmHg 72%
    08:00 +17°C° 0 mm 5 m/s 749 mmHg 68%
    09:00 +20°C° 0 mm 5 m/s 750 mmHg 64%
    10:00 +21°C° 0 mm 5 m/s 750 mmHg 59%
    11:00 +21°C° 0,1 mm 5 m/s 750 mmHg 57%
    12:00 +22°C° 0,1 mm 5 m/s 751 mmHg 55%
    13:00 +22°C° 0,1 mm 5 m/s 751 mmHg 53%
    14:00 +22°C° 0 mm 4 m/s 751 mmHg 54%
    15:00 +22°C° 0 mm 4 m/s 751 mmHg 54%
    16:00 +21°C° 0 mm 4 m/s 751 mmHg 55%
    17:00 +20°C° 0 mm 4 m/s 751 mmHg 62%
    18:00 +18°C° 0 mm 3 m/s 752 mmHg 69%
    19:00 +16°C° 0 mm 2 m/s 752 mmHg 75%
    20:00 +15°C° 0 mm 2 m/s 752 mmHg 79%
    21:00 +14°C° 0 mm 2 m/s 753 mmHg 83%
    22:00 +14°C° 0 mm 1 m/s 753 mmHg 86%
    23:00 +13°C° 0 mm 1 m/s 753 mmHg 87%

    Après-demain, 22 Août, Mercredi

    Heure Température Précipitation Vent Pression Humidité
    00:00 +13°C° 0 mm 1 m/s 754 mmHg 88%
    01:00 +12°C° 0 mm 1 m/s 754 mmHg 89%
    02:00 +12°C° 0 mm 1 m/s 754 mmHg 90%
    03:00 +11°C° 0 mm 1 m/s 754 mmHg 90%
    04:00 +11°C° 0 mm 1 m/s 754 mmHg 90%
    05:00 +12°C° 0 mm 1 m/s 754 mmHg 84%
    06:00 +14°C° 0 mm 2 m/s 754 mmHg 78%
    07:00 +15°C° 0 mm 2 m/s 755 mmHg 72%
    08:00 +17°C° 0 mm 2 m/s 755 mmHg 65%
    09:00 +18°C° 0 mm 2 m/s 755 mmHg 57%
    10:00 +20°C° 0 mm 2 m/s 755 mmHg 49%
    11:00 +21°C° 0 mm 2 m/s 754 mmHg 46%
    12:00 +23°C° 0 mm 2 m/s 754 mmHg 42%
    13:00 +24°C° 0 mm 2 m/s 754 mmHg 39%
    14:00 +24°C° 0 mm 2 m/s 753 mmHg 39%
    15:00 +24°C° 0 mm 2 m/s 753 mmHg 39%
    16:00 +24°C° 0 mm 2 m/s 752 mmHg 39%
    17:00 +23°C° 0 mm 2 m/s 752 mmHg 45%
    18:00 +20°C° 0 mm 2 m/s 752 mmHg 50%
    19:00 +18°C° 0 mm 2 m/s 752 mmHg 56%
    20:00 +17°C° 0 mm 2 m/s 752 mmHg 58%
    21:00 +16°C° 0 mm 2 m/s 752 mmHg 59%
    22:00 +16°C° 0 mm 3 m/s 752 mmHg 61%
    23:00 +14°C° 0 mm 3 m/s 752 mmHg 63%

    23 Août, Jeudi

    Heure Température Précipitation Vent Pression Humidité
    00:00 +14°C° 0 mm 3 m/s 752 mmHg 65%
    01:00 +14°C° 0 mm 3 m/s 752 mmHg 67%
    02:00 +13°C° 0 mm 3 m/s 751 mmHg 71%
    03:00 +13°C° 0 mm 3 m/s 751 mmHg 74%
    04:00 +13°C° 0 mm 3 m/s 751 mmHg 77%
    05:00 +14°C° 0 mm 3 m/s 751 mmHg 75%
    06:00 +17°C° 0 mm 4 m/s 751 mmHg 73%
    07:00 +18°C° 0 mm 4 m/s 750 mmHg 70%
    08:00 +20°C° 0 mm 4 m/s 750 mmHg 65%
    09:00 +22°C° 0 mm 4 m/s 750 mmHg 60%
    10:00 +25°C° 0 mm 4 m/s 750 mmHg 54%
    11:00 +26°C° 0 mm 4 m/s 750 mmHg 51%
    12:00 +27°C° 0 mm 4 m/s 749 mmHg 48%
    13:00 +28°C° 0 mm 4 m/s 749 mmHg 45%
    14:00 +28°C° 0 mm 3 m/s 749 mmHg 45%
    15:00 +28°C° 0 mm 3 m/s 748 mmHg 46%
    16:00 +28°C° 0 mm 3 m/s 748 mmHg 46%
    17:00 +26°C° 0 mm 2 m/s 748 mmHg 51%
    18:00 +24°C° 0 mm 2 m/s 747 mmHg 57%
    19:00 +23°C° 0 mm 2 m/s 747 mmHg 62%
    20:00 +21°C° 0 mm 2 m/s 747 mmHg 65%
    21:00 +20°C° 0 mm 3 m/s 747 mmHg 68%
    22:00 +20°C° 0 mm 3 m/s 747 mmHg 71%
    23:00 +19°C° 0 mm 3 m/s 746 mmHg 75%

    24 Août, Vendredi

    Heure Température Précipitation Vent Pression Humidité
    00:00 +19°C° 0 mm 3 m/s 746 mmHg 78%
    01:00 +19°C° 0 mm 3 m/s 746 mmHg 82%
    02:00 +19°C° 0,1 mm 3 m/s 746 mmHg 84%
    03:00 +18°C° 0,1 mm 3 m/s 745 mmHg 85%
    04:00 +18°C° 0,1 mm 3 m/s 745 mmHg 87%
    05:00 +19°C° 0,1 mm 4 m/s 745 mmHg 84%
    06:00 +20°C° 0,1 mm 4 m/s 745 mmHg 82%
    07:00 +21°C° 0,1 mm 5 m/s 744 mmHg 80%
    08:00 +23°C° 0,2 mm 5 m/s 744 mmHg 74%
    09:00 +26°C° 0,2 mm 5 m/s 744 mmHg 68%
    10:00 +28°C° 0,2 mm 6 m/s 744 mmHg 61%
    11:00 +29°C° 0 mm 6 m/s 743 mmHg 56%
    12:00 +30°C° 0 mm 6 m/s 743 mmHg 50%
    13:00 +33°C° 0 mm 6 m/s 743 mmHg 44%
    14:00 +33°C° 0 mm 5 m/s 743 mmHg 45%
    15:00 +33°C° 0 mm 5 m/s 742 mmHg 46%
    16:00 +32°C° 0 mm 4 m/s 742 mmHg 46%
    17:00 +30°C° 0 mm 4 m/s 742 mmHg 49%
    18:00 +29°C° 0 mm 4 m/s 742 mmHg 52%
    19:00 +27°C° 0 mm 4 m/s 742 mmHg 55%
    20:00 +26°C° 0,6 mm 4 m/s 742 mmHg 59%
    21:00 +25°C° 0,6 mm 4 m/s 741 mmHg 64%
    22:00 +23°C° 0,6 mm 4 m/s 741 mmHg 69%
    23:00 +23°C° 0,3 mm 4 m/s 741 mmHg 73%

    25 Août, Samedi

    Heure Température Précipitation Vent Pression Humidité
    00:00 +22°C° 0,3 mm 4 m/s 741 mmHg 76%
    01:00 +21°C° 0,3 mm 3 m/s 741 mmHg 79%
    02:00 +21°C° 0,6 mm 3 m/s 741 mmHg 83%
    03:00 +20°C° 0,6 mm 3 m/s 741 mmHg 87%
    04:00 +20°C° 0,6 mm 2 m/s 741 mmHg 90%
    05:00 +20°C° 0,7 mm 2 m/s 741 mmHg 89%
    06:00 +20°C° 0,7 mm 2 m/s 742 mmHg 87%
    07:00 +21°C° 0,7 mm 2 m/s 742 mmHg 86%
    08:00 +23°C° 0,1 mm 2 m/s 742 mmHg 82%
    09:00 +24°C° 0,1 mm 2 m/s 742 mmHg 78%
    10:00 +25°C° 0,1 mm 2 m/s 742 mmHg 74%
    11:00 +24°C° 1 mm 3 m/s 742 mmHg 75%
    12:00 +23°C° 1 mm 4 m/s 742 mmHg 77%
    13:00 +23°C° 1 mm 4 m/s 742 mmHg 78%
    14:00 +22°C° 1,6 mm 5 m/s 743 mmHg 81%
    15:00 +21°C° 1,6 mm 5 m/s 743 mmHg 85%
    16:00 +19°C° 1,6 mm 6 m/s 743 mmHg 88%
    17:00 +19°C° 0,5 mm 5 m/s 743 mmHg 89%
    18:00 +17°C° 0,5 mm 5 m/s 743 mmHg 89%
    19:00 +16°C° 0,5 mm 5 m/s 743 mmHg 89%
    20:00 +17°C° 0 mm 4 m/s 744 mmHg 89%
    21:00 +15°C° 0 mm 4 m/s 744 mmHg 89%
    22:00 +15°C° 0 mm 4 m/s 744 mmHg 89%
    23:00 +14°C° 0 mm 4 m/s 744 mmHg 90%
    Voir plus